Location: Doughton Park
(36.4224°N, 81.1835°W)
Time: 22:43:51
(UTC-04:00)

Amateur Radio Satellites - All Passes

Search period start: 25 June 2016 22:13
Search period end: 26 June 2016 22:13
Location: Doughton Park, 36.4224°N, 81.1835°W

Satellite Date Start Highest point End Downlink Frequencies (MHz)
Time Altitude Azimuth
AAUSAT CUBESAT 2 25 Jun 22:14:07 22:17:21 22° 265° (W) 22:20:36 437.432
AUBIESAT-1 25 Jun 22:23:24 22:25:22 15° 260° (W) 22:27:20 437.475
SRMSAT 25 Jun 22:28:57 22:31:54 14° 187° (S) 22:34:50 437.500
RS-15 25 Jun 22:33:58 22:46:25 89° 244° (WSW) 22:58:38 29.354- 29.394
HO-68 25 Jun 22:35:26 22:38:38 13° 270° (W) 22:41:51 435.675
CUBEBUG 2 25 Jun 22:37:32 22:39:51 15° 267° (W) 22:42:12 437.445
DELFI C3 25 Jun 22:52:12 22:56:02 44° 261° (W) 22:59:55 145.870
TIGRISAT 25 Jun 22:53:39 22:57:05 20° 95° (E) 23:00:32 435.000
UNISAT 6 25 Jun 22:57:24 23:01:09 24° 95° (E) 23:04:55 437.425
PRISM 25 Jun 23:08:31 23:10:48 15° 294° (WNW) 23:13:06 437.425
ZACube-1 25 Jun 23:19:07 23:20:30 11° 269° (W) 23:21:53 437.345
HUMSAT D 25 Jun 23:21:25 23:25:24 46° 261° (W) 23:29:27 437.325/437.525
AO-85 25 Jun 23:28:34 23:33:49 48° 304° (NW) 23:38:56 145.980
VELOX 1 25 Jun 23:34:05 23:37:33 23° 69° (ENE) 23:41:01 145.980
CUBEBUG 1 25 Jun 23:34:28 23:38:00 25° 70° (ENE) 23:41:33 437.445
ANTELSAT 25 Jun 23:36:39 23:41:16 65° 101° (E) 23:45:56 437.575/2403.000
NANOSAT C BR1 25 Jun 23:53:02 23:55:01 13° 93° (E) 23:57:00 145.865
QB50P1 25 Jun 23:53:52 23:56:10 14° 93° (E) 23:58:28 145.935-145.965
YUBILEINY 25 Jun 23:55:06 00:02:24 28° 71° (ENE) 00:09:38 435.215
ESTCUBE 1 25 Jun 23:56:01 00:00:31 68° 75° (ENE) 00:05:02 437.505/2401.250
POPSAT HIP 1 25 Jun 23:56:35 23:59:04 15° 93° (E) 00:01:34 437.405
QB50P2 26 Jun 00:07:21 00:10:41 22° 95° (E) 00:14:01 145.880/145.840
POLYITAN 1 26 Jun 00:09:56 00:13:19 23° 96° (E) 00:16:43 437.675
AISAT 26 Jun 00:13:27 00:17:50 69° 76° (ENE) 00:22:13 437.250
DUCHIFAT 1 26 Jun 00:14:03 00:17:21 22° 95° (E) 00:20:39 145.980
50 SAT 26 Jun 00:22:15 00:25:57 84° 258° (WSW) 00:29:41 437.505
TIGRISAT 26 Jun 00:29:36 00:33:48 35° 288° (WNW) 00:38:02 435.000
UKube-1 26 Jun 00:31:01 00:35:17 64° 75° (ENE) 00:39:33 .
UNISAT 6 26 Jun 00:33:48 00:37:48 30° 289° (WNW) 00:41:51 437.425
TISAT 1 26 Jun 00:38:15 00:39:37 11° 65° (ENE) 00:41:00 437.305
SPROUT 26 Jun 00:38:53 00:42:58 50° 74° (ENE) 00:47:05 437.525
DX 1 26 Jun 00:44:52 00:49:12 68° 258° (WSW) 00:53:32 434.975-435.025
RS-15 26 Jun 00:49:00 00:57:12 21° 261° (W) 01:05:20 29.354- 29.394
SO-50 26 Jun 00:54:09 00:55:55 12° 42° (NE) 00:57:40 436.795
Cosmos 2491 26 Jun 00:59:58 01:07:56 40° 87° (E) 01:15:52 435.465 / 435.565
Cosmos 2504 26 Jun 01:07:25 01:14:26 25° 69° (ENE) 01:21:15 435.465 / 435.565
VELOX 1 26 Jun 01:10:04 01:13:51 28° 263° (W) 01:17:39 145.980
CUBEBUG 1 26 Jun 01:10:34 01:14:10 25° 264° (W) 01:17:47 437.445
JAS-2 26 Jun 01:15:34 01:20:05 25° 93° (E) 01:24:20 435.910
ANTELSAT 26 Jun 01:15:43 01:17:25 12° 296° (WNW) 01:19:07 437.575/2403.000
BUGSAT 1 26 Jun 01:22:32 01:26:35 63° 101° (E) 01:30:41 437.445
NANOSAT C BR1 26 Jun 01:26:54 01:30:56 44° 287° (WNW) 01:34:58 145.865
QB50P1 26 Jun 01:28:06 01:32:05 40° 287° (WNW) 01:36:04 145.935-145.965
POPSAT HIP 1 26 Jun 01:31:02 01:34:58 38° 288° (WNW) 01:38:56 437.405
ITUPSAT 1 26 Jun 01:36:17 01:37:19 11° 62° (ENE) 01:38:22 437.325
BEESAT 26 Jun 01:37:00 01:38:22 11° 62° (ENE) 01:39:43 436.000
QB50P2 26 Jun 01:42:52 01:46:25 26° 290° (WNW) 01:49:59 145.880/145.840
Oscar 19 26 Jun 01:45:00 01:48:06 16° 93° (E) 01:51:13 437.125/150
POLYITAN 1 26 Jun 01:45:30 01:49:02 26° 290° (WNW) 01:52:36 437.675
DUCHIFAT 1 26 Jun 01:49:27 01:52:59 26° 289° (WNW) 01:56:31 145.980
YUBILEINY 26 Jun 01:51:02 01:59:38 59° 269° (W) 02:08:13 435.215
TISAT 1 26 Jun 02:10:44 02:14:47 53° 259° (W) 02:18:52 437.305
SPROUT 26 Jun 02:17:47 02:19:10 11° 268° (W) 02:20:34 437.525
SO-50 26 Jun 02:32:26 02:37:05 88° 241° (WSW) 02:41:34 436.795
SWISSCUBE 26 Jun 02:45:05 02:49:48 67° 75° (ENE) 02:54:34 437.505
Cosmos 2491 26 Jun 02:56:35 03:04:39 40° 285° (WNW) 03:12:45 435.465 / 435.565
BEESAT 3 26 Jun 02:57:04 02:59:38 17° 110° (ESE) 03:02:15 437.485
PCSat 26 Jun 02:59:26 03:04:36 48° 111° (ESE) 03:09:48 145.827
Cosmos 2504 26 Jun 02:59:41 03:08:28 66° 268° (W) 03:16:53 435.465 / 435.565
O/OREOS (USA 219) 26 Jun 02:59:42 03:02:47 18° 101° (E) 03:05:52 437.305
JAS-2 26 Jun 03:00:10 03:05:18 35° 292° (WNW) 03:10:02 435.910
ITUPSAT 1 26 Jun 03:09:41 03:14:28 77° 257° (WSW) 03:19:18 437.325
BEESAT 26 Jun 03:10:43 03:15:29 73° 258° (WSW) 03:20:17 436.000
KKS-1 26 Jun 03:14:30 03:16:26 13° 65° (ENE) 03:18:23 437.445
Gurwin Techsat 1B 26 Jun 03:15:06 03:20:20 55° 101° (E) 03:25:31 435.225
Oscar 19 26 Jun 03:22:44 03:27:42 51° 287° (WNW) 03:32:38 437.125/150
BEESAT 2 26 Jun 03:28:23 03:31:23 21° 111° (ESE) 03:34:24 435.950
ITAMSAT 1 26 Jun 03:38:47 03:43:25 31° 97° (E) 03:48:00 435.822/435.867
STARS 26 Jun 03:53:54 03:56:43 17° 67° (ENE) 03:59:33 437.465
AO-7 26 Jun 03:55:26 04:01:40 23° 95° (E) 04:07:52 29.400- 29.500
MOZHAYETS 4 26 Jun 04:16:38 04:21:07 55° 74° (ENE) 04:25:40
SWISSCUBE 26 Jun 04:26:53 04:28:00 11° 269° (W) 04:29:08 437.505
BEESAT 3 26 Jun 04:33:29 04:37:03 33° 305° (NW) 04:40:38 437.485
O/OREOS (USA 219) 26 Jun 04:37:46 04:41:53 35° 295° (WNW) 04:46:01 437.305
AIST 1 26 Jun 04:42:41 04:46:12 25° 76° (ENE) 04:49:44
PCSat 26 Jun 04:43:59 04:48:13 23° 308° (NW) 04:52:28 145.827
KKS-1 26 Jun 04:48:11 04:52:30 54° 259° (W) 04:56:51 437.445
Gurwin Techsat 1B 26 Jun 04:56:24 04:59:47 17° 296° (WNW) 05:03:10 435.225
BEESAT 2 26 Jun 05:05:37 05:09:03 28° 307° (NW) 05:12:31 435.950
ITAMSAT 1 26 Jun 05:18:19 05:22:45 28° 292° (WNW) 05:27:08 435.822/435.867
AIST 2 26 Jun 05:23:29 05:26:29 20° 111° (ESE) 05:29:30 435.215
STARS 26 Jun 05:28:44 05:32:46 37° 261° (W) 05:36:49 437.465
CUBESAT XI-V 26 Jun 05:36:16 05:40:43 44° 73° (ENE) 05:45:11 437.345
AO-7 26 Jun 05:46:40 05:54:59 70° 291° (WNW) 06:03:15 29.400- 29.500
GONETS M04 26 Jun 05:51:46 05:59:37 36° 74° (ENE) 06:07:27
Cosmos 2499 26 Jun 05:52:41 05:59:26 24° 68° (ENE) 06:05:54 435.465 / 435.565
MOZHAYETS 4 26 Jun 05:56:41 05:58:36 12° 269° (W) 06:00:31
HORYU 2 26 Jun 06:07:01 06:11:29 60° 101° (ESE) 06:15:54 437.375
AIST 1 26 Jun 06:20:26 06:23:38 21° 271° (W) 06:26:49
NOAA 18 26 Jun 06:34:08 06:37:45 18° 93° (E) 06:41:21 137.9125
NOAA 15 26 Jun 06:35:54 06:40:00 23° 95° (E) 06:44:03 137.62
BRITE-PL 26 Jun 06:55:05 06:58:45 30° 97° (E) 07:02:25 437.365/2234.400
AIST 2 26 Jun 07:01:03 07:04:45 31° 306° (NW) 07:08:28 435.215
Cubesat XI-IV 26 Jun 07:02:12 07:06:53 30° 97° (E) 07:11:32 437.490
CUSAT 1 26 Jun 07:08:32 07:13:44 20° 87° (E) 07:18:35 437.405
LilacSat-2 26 Jun 07:13:36 07:17:11 34° 98° (E) 07:20:44 437.200
CUBESAT XI-V 26 Jun 07:15:22 07:18:17 16° 267° (W) 07:21:12 437.345
DOVE 4 26 Jun 07:22:08 07:23:28 11° 92° (E) 07:24:49 437.250
STRAND 1 26 Jun 07:24:53 07:29:43 43° 71° (ENE) 07:34:35 437.568
CUTE-I 26 Jun 07:37:00 07:42:23 66° 102° (ESE) 07:47:42 437.470
AO-7 26 Jun 07:42:21 07:46:14 14° 310° (NW) 07:50:08 29.400- 29.500
GOMX 1 26 Jun 07:42:54 07:46:57 46° 100° (E) 07:51:08 467.674
Cosmos 2499 26 Jun 07:44:35 07:53:18 68° 268° (W) 08:01:29 435.465 / 435.565
HORYU 2 26 Jun 07:45:48 07:47:29 12° 296° (WNW) 07:49:10 437.375
GONETS M04 26 Jun 07:48:23 07:56:29 45° 272° (W) 08:04:36
AO-85 26 Jun 08:03:21 08:07:50 78° 61° (ENE) 08:11:53 145.980
PHONESAT 2.4 26 Jun 08:09:21 08:12:12 37° 152° (SSE) 08:15:04 2401.200-2431.200
NOAA 18 26 Jun 08:13:17 08:18:41 55° 288° (WNW) 08:24:05 137.9125
NOAA 15 26 Jun 08:15:01 08:19:50 38° 290° (WNW) 08:24:38 137.62
HO-68 26 Jun 08:15:03 08:19:58 19° 93° (E) 08:24:51 435.675
PRISM 26 Jun 08:19:30 08:22:36 21° 69° (ENE) 08:25:43 437.425
BRITE-PL 26 Jun 08:34:14 08:37:02 18° 292° (WNW) 08:39:51 437.365/2234.400
CINEMA 3 26 Jun 08:36:21 08:40:02 24° 96° (E) 08:43:50 145.822/145.860
CANX-2 26 Jun 08:41:34 08:45:08 25° 96° (E) 08:48:40 2200.000
Cubesat XI-IV 26 Jun 08:42:11 08:46:52 31° 292° (WNW) 08:51:32 437.490
DANDE 26 Jun 08:43:27 08:51:29 55° 92° (E) 08:59:22 436.750
CUSAT 1 26 Jun 08:47:16 08:55:18 77° 279° (W) 09:02:22 437.405
LilacSat-2 26 Jun 08:49:02 08:51:09 14° 292° (WNW) 08:53:17 437.200
CUBEBUG 2 26 Jun 08:54:45 08:55:44 11° 91° (E) 08:56:44 437.445
COMPASS 1 26 Jun 08:55:11 08:57:35 15° 93° (E) 08:59:59 437.405
DOVE 4 26 Jun 08:57:12 09:01:24 53° 285° (WNW) 09:05:47 437.250
CUTE 1.7 + AOD 2 26 Jun 09:01:47 09:05:47 38° 98° (E) 09:09:45 437.475
STRAND 1 26 Jun 09:05:25 09:09:02 19° 266° (W) 09:12:42 437.568
SEEDS 26 Jun 09:10:57 09:14:50 34° 97° (E) 09:18:39 437.485
CUTE-I 26 Jun 09:18:53 09:21:48 15° 297° (WNW) 09:24:44 437.470
GOMX 1 26 Jun 09:22:52 09:24:41 13° 293° (WNW) 09:26:32 467.674
ZACube-1 26 Jun 09:32:22 09:34:18 12° 92° (E) 09:36:14 437.345
Cosmos 2499 26 Jun 09:44:16 09:44:33 10° 286° (WNW) 09:44:50 435.465 / 435.565
UWE-3 26 Jun 09:45:24 09:49:20 28° 96° (E) 09:53:20 435.000/436.395/437.385
PHONESAT 2.4 26 Jun 09:45:47 09:48:47 50° 347° (NNW) 09:51:48 2401.200-2431.200
Oscar 11 26 Jun 09:46:40 09:49:46 19° 94° (E) 09:52:49 145.826/435.025
FUNcube-1 26 Jun 09:50:20 09:53:35 19° 94° (E) 09:56:51 145.935
TIGRISAT 26 Jun 09:51:37 09:53:24 12° 65° (ENE) 09:55:12 435.000
PRISM 26 Jun 09:54:09 09:57:43 28° 263° (W) 10:01:19 437.425
UNISAT 6 26 Jun 09:55:08 09:57:32 15° 66° (ENE) 09:59:57 437.425
AAUSAT CUBESAT 2 26 Jun 09:57:46 10:01:56 69° 102° (ESE) 10:06:03 437.432
HO-68 26 Jun 10:01:01 10:08:10 69° 289° (WNW) 10:15:18 435.675
AUBIESAT-1 26 Jun 10:01:55 10:05:26 30° 103° (ESE) 10:09:09 437.475
CINEMA 3 26 Jun 10:13:13 10:17:06 29° 289° (WNW) 10:21:07 145.822/145.860
CANX-2 26 Jun 10:17:26 10:20:52 23° 290° (WNW) 10:24:15 2200.000
ISS 26 Jun 10:18:29 10:21:42 67° 320° (NW) 10:24:57 145.825
DANDE 26 Jun 10:27:15 10:34:32 33° 288° (WNW) 10:41:38 436.750
CUBEBUG 2 26 Jun 10:28:07 10:32:40 65° 285° (WNW) 10:37:19 437.445
COMPASS 1 26 Jun 10:29:23 10:33:16 37° 287° (WNW) 10:37:07 437.405
DELFI C3 26 Jun 10:32:36 10:36:00 26° 96° (E) 10:39:21 145.870
ANTELSAT 26 Jun 10:33:12 10:37:10 39° 73° (ENE) 10:41:14 437.575/2403.000
CUSAT 1 26 Jun 10:34:37 10:38:03 13° 293° (WNW) 10:41:18 437.405
M-CUBED/EXP-1 PRIME 26 Jun 10:38:33 10:42:24 73° 288° (WNW) 10:46:34 437.505
CUTE 1.7 + AOD 2 26 Jun 10:38:38 10:41:17 16° 293° (WNW) 10:43:55 437.475
SEEDS 26 Jun 10:47:25 10:50:15 18° 292° (WNW) 10:53:03 437.485
RS-15 26 Jun 10:48:22 10:53:58 15° 96° (E) 10:59:40 29.354- 29.394
QB50P2 26 Jun 10:59:08 11:00:56 13° 65° (ENE) 11:02:45 145.880/145.840
POLYITAN 1 26 Jun 11:01:39 11:03:33 13° 66° (ENE) 11:05:27 437.675
DUCHIFAT 1 26 Jun 11:05:11 11:06:52 12° 65° (ENE) 11:08:32 145.980
ZACube-1 26 Jun 11:06:24 11:10:50 54° 286° (WNW) 11:15:18 437.345
HUMSAT D 26 Jun 11:07:20 11:11:12 32° 97° (E) 11:15:04 437.325/437.525
Cosmos 2491 26 Jun 11:14:44 11:19:51 16° 65° (ENE) 11:24:55 435.465 / 435.565
UWE-3 26 Jun 11:21:56 11:25:39 25° 290° (WNW) 11:29:25 435.000/436.395/437.385
Oscar 11 26 Jun 11:22:02 11:25:56 32° 288° (WNW) 11:29:48 145.826/435.025
PHONESAT 2.4 26 Jun 11:22:49 11:25:43 37° 4° (N) 11:28:37 2401.200-2431.200
TIGRISAT 26 Jun 11:25:27 11:29:35 51° 260° (W) 11:33:50 435.000
FUNcube-1 26 Jun 11:25:45 11:29:51 35° 288° (WNW) 11:34:00 145.935
JAS-2 26 Jun 11:26:53 11:29:54 13° 59° (ENE) 11:32:49 435.910
UNISAT 6 26 Jun 11:29:48 11:33:50 42° 261° (W) 11:37:59 437.425
AUBIESAT-1 26 Jun 11:36:57 11:39:44 19° 294° (WNW) 11:42:38 437.475
PCSat 26 Jun 11:50:13 11:54:34 24° 52° (NE) 11:58:54 145.827
ESTCUBE 1 26 Jun 11:52:13 11:55:10 17° 94° (E) 11:58:05 437.505/2401.250
HO-68 26 Jun 11:52:20 11:54:34 12° 306° (NW) 11:56:49 435.675
ISS 26 Jun 11:57:23 11:58:40 12° 338° (NNW) 11:59:57 145.825
AISAT 26 Jun 12:07:27 12:10:05 16° 94° (E) 12:12:42 437.250
DELFI C3 26 Jun 12:07:46 12:10:40 20° 291° (WNW) 12:13:33 145.870
BUGSAT 1 26 Jun 12:10:05 12:13:35 29° 71° (ENE) 12:17:06 437.445
ANTELSAT 26 Jun 12:11:35 12:14:03 15° 267° (W) 12:16:33 437.575/2403.000
NANOSAT C BR1 26 Jun 12:16:00 12:20:11 87° 253° (WSW) 12:24:23 145.865
QB50P1 26 Jun 12:17:28 12:21:39 79° 258° (WSW) 12:25:51 145.935-145.965
POPSAT HIP 1 26 Jun 12:20:26 12:24:36 74° 258° (WSW) 12:28:48 437.405
UKube-1 26 Jun 12:22:30 12:24:26 13° 93° (E) 12:26:20 .
SPROUT 26 Jun 12:30:18 12:30:53 10° 91° (E) 12:31:28 437.525
QB50P2 26 Jun 12:32:14 12:36:17 48° 260° (W) 12:40:22 145.880/145.840
POLYITAN 1 26 Jun 12:34:53 12:38:55 47° 261° (W) 12:42:58 437.675
DX 1 26 Jun 12:36:04 12:39:36 24° 96° (E) 12:43:06 434.975-435.025
DUCHIFAT 1 26 Jun 12:38:04 12:42:05 49° 260° (W) 12:46:09 145.980
HUMSAT D 26 Jun 12:43:30 12:46:35 19° 292° (WNW) 12:49:39 437.325/437.525
BEESAT 3 26 Jun 12:52:34 12:56:28 58° 58° (ENE) 13:00:21 437.485
RS-15 26 Jun 12:52:56 13:04:11 78° 116° (ESE) 13:16:08 29.354- 29.394
YUBILEINY 26 Jun 12:53:02 13:00:32 34° 85° (E) 13:08:05 435.215
Oscar 19 26 Jun 12:59:26 13:03:03 19° 65° (ENE) 13:06:38 437.125/150
PHONESAT 2.4 26 Jun 12:59:26 13:02:31 88° 1° (N) 13:05:37 2401.200-2431.200
CUBEBUG 1 26 Jun 13:00:39 13:04:58 70° 102° (ESE) 13:09:16 437.445
VELOX 1 26 Jun 13:01:51 13:06:12 64° 101° (E) 13:10:34 145.980
JAS-2 26 Jun 13:06:07 13:13:52 72° 74° (ENE) 13:21:03 435.910
Cosmos 2491 26 Jun 13:09:06 13:17:52 90° 265° (W) 13:26:35 435.465 / 435.565
O/OREOS (USA 219) 26 Jun 13:11:08 13:14:47 24° 62° (ENE) 13:18:25 437.305
BEESAT 2 26 Jun 13:25:14 13:29:14 74° 60° (ENE) 13:33:12 435.950
50 SAT 26 Jun 13:27:26 13:30:58 44° 286° (WNW) 13:34:28 437.505
ESTCUBE 1 26 Jun 13:27:55 13:32:05 38° 288° (WNW) 13:36:13 437.505/2401.250
PCSat 26 Jun 13:33:00 13:38:09 45° 249° (WSW) 13:43:15 145.827
AISAT 26 Jun 13:42:36 13:46:42 39° 288° (WNW) 13:50:47 437.250
Cosmos 2504 26 Jun 13:43:57 13:49:20 20° 79° (E) 13:54:56 435.465 / 435.565
BUGSAT 1 26 Jun 13:46:18 13:48:59 17° 265° (W) 13:51:41 437.445
UKube-1 26 Jun 13:56:33 14:00:41 46° 287° (WNW) 14:04:48 .
TISAT 1 26 Jun 13:57:21 14:00:56 27° 97° (E) 14:04:29 437.305
SPROUT 26 Jun 14:02:56 14:07:08 56° 285° (WNW) 14:11:19 437.525
DX 1 26 Jun 14:12:08 14:15:41 25° 291° (WNW) 14:19:14 434.975-435.025
Gurwin Techsat 1B 26 Jun 14:33:33 14:38:49 68° 75° (ENE) 14:44:07 435.225
PHONESAT 2.4 26 Jun 14:36:49 14:38:52 16° 214° (SW) 14:40:53 2401.200-2431.200
Oscar 19 26 Jun 14:37:03 14:41:59 46° 260° (W) 14:46:56 437.125/150
VELOX 1 26 Jun 14:41:11 14:42:06 11° 296° (WNW) 14:43:01 145.980
SWISSCUBE 26 Jun 14:48:40 14:52:14 21° 95° (E) 14:55:47 437.505
YUBILEINY 26 Jun 14:48:45 14:56:59 47° 283° (WNW) 15:05:21 435.215
O/OREOS (USA 219) 26 Jun 14:50:19 14:54:06 27° 257° (WSW) 14:57:54 437.305
AO-7 26 Jun 14:52:01 14:58:37 27° 58° (ENE) 15:05:14 29.400- 29.500
JAS-2 26 Jun 14:53:46 14:59:12 20° 267° (W) 15:04:25 435.910
ITAMSAT 1 26 Jun 14:54:12 14:58:57 37° 70° (ENE) 15:03:44 435.822/435.867
RS-15 26 Jun 15:07:52 15:17:55 33° 320° (NW) 15:28:30 29.354- 29.394
Cosmos 2491 26 Jun 15:08:57 15:13:22 15° 282° (WNW) 15:17:47 435.465 / 435.565
ITUPSAT 1 26 Jun 15:13:02 15:17:21 33° 98° (E) 15:21:40 437.325
BEESAT 26 Jun 15:13:37 15:17:59 34° 98° (E) 15:22:19 436.000
AIST 2 26 Jun 15:24:06 15:28:16 74° 61° (ENE) 15:32:24 435.215
TISAT 1 26 Jun 15:33:12 15:36:25 22° 291° (WNW) 15:39:38 437.305
Cosmos 2504 26 Jun 15:33:42 15:41:38 73° 278° (W) 15:50:13 435.465 / 435.565
MOZHAYETS 4 26 Jun 16:15:29 16:18:17 16° 93° (E) 16:21:06
Gurwin Techsat 1B 26 Jun 16:16:57 16:19:12 13° 269° (W) 16:21:27 435.225
SWISSCUBE 26 Jun 16:25:43 16:30:05 36° 289° (WNW) 16:34:26 437.505
ITAMSAT 1 26 Jun 16:34:23 16:38:28 23° 265° (W) 16:42:35 435.822/435.867
KKS-1 26 Jun 16:41:42 16:45:43 33° 98° (E) 16:49:45 437.445
AO-7 26 Jun 16:42:30 16:50:43 65° 256° (WSW) 16:59:02 29.400- 29.500
SO-50 26 Jun 16:43:34 16:48:20 56° 116° (ESE) 16:53:07 436.795
ISS 26 Jun 16:48:17 16:51:26 43° 37° (NE) 16:54:34 145.825
ITUPSAT 1 26 Jun 16:51:13 16:54:58 23° 293° (WNW) 16:58:43 437.325
BEESAT 26 Jun 16:51:52 16:55:32 22° 293° (WNW) 16:59:11 436.000
HORYU 2 26 Jun 17:02:33 17:06:39 39° 72° (ENE) 17:10:47 437.375
AIST 1 26 Jun 17:10:04 17:12:55 17° 88° (E) 17:15:46
STARS 26 Jun 17:20:13 17:24:26 44° 100° (E) 17:28:39 437.465
JUGNU 26 Jun 17:29:00 17:32:05 14° 174° (S) 17:35:09 437.505
RS-15 26 Jun 17:29:32 17:36:03 16° 355° (N) 17:42:42 29.354- 29.394
Cosmos 2504 26 Jun 17:33:44 17:36:44 12° 299° (WNW) 17:39:46 435.465 / 435.565
CUBESAT XI-V 26 Jun 17:37:10 17:39:17 13° 91° (E) 17:41:23 437.345
MOZHAYETS 4 26 Jun 17:51:14 17:55:38 43° 288° (WNW) 18:00:00
NOAA 15 26 Jun 17:53:22 17:57:54 29° 68° (ENE) 18:02:25 137.62
LilacSat-2 26 Jun 17:54:58 17:56:37 13° 67° (ENE) 17:58:16 437.200
NOAA 18 26 Jun 17:57:40 18:02:10 27° 66° (ENE) 18:06:41 137.9125
BRITE-PL 26 Jun 18:02:52 18:07:25 32° 72° (ENE) 18:11:41 437.365/2234.400
KKS-1 26 Jun 18:18:50 18:22:02 20° 292° (WNW) 18:25:15 437.445
Cubesat XI-IV 26 Jun 18:21:38 18:26:32 38° 70° (ENE) 18:31:27 437.490
ISS 26 Jun 18:25:39 18:27:35 15° 232° (SW) 18:29:33 145.825
SO-50 26 Jun 18:25:43 18:29:09 19° 313° (NW) 18:32:35 436.795
Cosmos 2499 26 Jun 18:27:17 18:32:34 19° 79° (E) 18:38:02 435.465 / 435.565
HORYU 2 26 Jun 18:40:39 18:43:21 16° 266° (W) 18:46:04 437.375
SRMSAT 26 Jun 18:40:47 18:42:13 11° 168° (SSE) 18:43:39 437.500
HO-68 26 Jun 18:44:36 18:46:51 12° 54° (NE) 18:49:06 435.675
AIST 1 26 Jun 18:46:21 18:50:14 31° 282° (WNW) 18:54:06
GOMX 1 26 Jun 18:48:29 18:52:55 39° 73° (ENE) 18:57:04 467.674
GONETS M04 26 Jun 18:49:29 18:57:35 45° 88° (E) 19:05:39
CUTE-I 26 Jun 18:56:14 19:01:34 83° 75° (ENE) 19:06:57 437.470
STARS 26 Jun 18:57:54 19:00:24 15° 294° (WNW) 19:02:53 437.465
CUBESAT XI-V 26 Jun 19:12:27 19:16:57 52° 286° (WNW) 19:21:23 437.345
JUGNU 26 Jun 19:17:01 19:20:18 15° 184° (S) 19:23:35 437.505
LilacSat-2 26 Jun 19:27:02 19:30:32 37° 262° (W) 19:34:05 437.200
CUSAT 1 26 Jun 19:28:12 19:31:50 50° 77° (ENE) 19:34:44 437.405
DANDE 26 Jun 19:29:56 19:33:48 22° 67° (ENE) 19:36:56 436.750
NOAA 15 26 Jun 19:32:55 19:37:34 31° 263° (W) 19:42:12 137.62
CANX-2 26 Jun 19:33:05 19:35:21 14° 66° (ENE) 19:37:36 2200.000
CINEMA 3 26 Jun 19:37:08 19:39:26 15° 67° (ENE) 19:41:45 145.822/145.860
NOAA 18 26 Jun 19:37:39 19:42:37 36° 262° (W) 19:47:38 137.9125
STRAND 1 26 Jun 19:38:55 19:42:24 18° 93° (E) 19:45:50 437.568
BRITE-PL 26 Jun 19:41:33 19:45:50 25° 264° (W) 19:49:53 437.365/2234.400
RS-15 26 Jun 19:45:40 19:55:12 25° 31° (NNE) 20:04:43 29.354- 29.394
CUTE 1.7 + AOD 2 26 Jun 19:52:32 19:55:41 20° 69° (ENE) 19:58:51 437.475
DOVE 4 26 Jun 20:00:08 20:04:34 73° 259° (W) 20:08:48 437.250
SEEDS 26 Jun 20:00:57 20:03:49 18° 68° (ENE) 20:06:42 437.485
Cubesat XI-IV 26 Jun 20:02:27 20:06:40 24° 265° (W) 20:10:54 437.490
Cosmos 2499 26 Jun 20:16:22 20:24:30 78° 277° (W) 20:33:17 435.465 / 435.565
HO-68 26 Jun 20:26:11 20:33:16 70° 72° (ENE) 20:40:24 435.675
SRMSAT 26 Jun 20:27:16 20:30:33 15° 178° (S) 20:33:52 437.500
GOMX 1 26 Jun 20:28:01 20:31:04 17° 265° (W) 20:34:01 467.674
Oscar 11 26 Jun 20:40:52 20:42:10 11° 65° (ENE) 20:43:30 145.826/435.025
UWE-3 26 Jun 20:41:15 20:43:45 16° 67° (ENE) 20:46:17 435.000/436.395/437.385
AAUSAT CUBESAT 2 26 Jun 20:45:30 20:49:13 32° 72° (ENE) 20:52:57 437.432
FUNcube-1 26 Jun 20:46:08 20:46:44 10° 64° (ENE) 20:47:21 145.935
GONETS M04 26 Jun 20:46:40 20:54:26 36° 286° (WNW) 21:02:15
AUBIESAT-1 26 Jun 20:47:01 20:49:31 20° 66° (ENE) 20:52:01 437.475
CANX-2 26 Jun 21:06:42 21:10:47 44° 261° (W) 21:14:55 2200.000
CINEMA 3 26 Jun 21:12:23 21:16:16 38° 262° (W) 21:20:08 145.822/145.860
DANDE 26 Jun 21:12:43 21:16:33 23° 275° (W) 21:19:37 436.750
COMPASS 1 26 Jun 21:16:50 21:21:02 82° 258° (WSW) 21:25:17 437.405
STRAND 1 26 Jun 21:16:50 21:21:46 46° 288° (WNW) 21:26:39 437.568
DELFI C3 26 Jun 21:17:51 21:19:24 12° 66° (ENE) 21:20:57 145.870
M-CUBED/EXP-1 PRIME 26 Jun 21:23:35 21:26:54 88° 261° (W) 21:30:09 437.505
CUBEBUG 2 26 Jun 21:23:42 21:27:49 76° 78° (ENE) 21:32:02 437.445
CUTE 1.7 + AOD 2 26 Jun 21:27:34 21:31:18 29° 263° (W) 21:35:04 437.475
SEEDS 26 Jun 21:35:25 21:39:15 33° 263° (W) 21:43:07 437.485
PRISM 26 Jun 21:37:37 21:41:32 44° 100° (E) 21:45:25 437.425
HUMSAT D 26 Jun 21:57:09 21:59:46 16° 67° (ENE) 22:02:24 437.325/437.525
ZACube-1 26 Jun 21:59:26 22:03:35 85° 76° (ENE) 22:07:52 437.345
